Regional Weather Roundup
Issued by NWS

Home | Current Version | Previous Version | Graphics & Text | Print | Product List | Glossary On
Versions: 1 2 3 4 5 6 7 8 9 10 11 12 13 14 15 16 17 18 19 20 21 22 23 24 25 26 27 28 29 30 31 32 33 34 35 36 37 38 39 40 41 42 43 44 45 46 47 48 49 50
000
ASUS43 KMKX 281900
RWRWI

WISCONSIN REGIONAL WEATHER ROUNDUP
NATIONAL WEATHER SERVICE MILWAUKEE/SULLIVAN WI
200 PM CDT WED JUN 28 2017

NOTE: "FAIR" INDICATES FEW OR NO CLOUDS BELOW 12,000 FEET WITH NO
SIGNIFICANT WEATHER AND/OR OBSTRUCTIONS TO VISIBILITY.

WIZ001-002-006>008-014>016-023>028-282000-
NORTHWEST WISCONSIN

CITY           SKY/WX    TMP DP  RH WIND       PRES   REMARKS
SUPERIOR ARPT  NOT AVBL
ASHLAND        LGT RAIN  64  62  93 SE5       29.63F
HAYWARD        CLOUDY    62  59  90 S8        29.62S
SIREN          LGT RAIN  66  64  95 S13       29.58S
CUMBERLAND     DRIZZLE   64  63  94 S15G21    29.61R
RICE LAKE      LGT RAIN  66  64  93 S9        29.63R
CHETEK         LGT RAIN  65  65  98 S10       29.63S
LADYSMITH      CLOUDY    65  63  94 SE12G17   29.66F
EAU CLAIRE     CLOUDY    68  64  88 S10       29.62F
MENOMONIE      CLOUDY    69  65  86 SE14      29.62S
NEW RICHMOND   CLOUDY    68  66  93 S10       29.59F
OSCEOLA        LGT RAIN  69  69 100 S10       29.60F
$$

WIZ003>005-009-010-017-018-282000-
NORTH CENTRAL WISCONSIN

CITY           SKY/WX    TMP DP  RH WIND       PRES   REMARKS
MANITOWISH WTR HVY RAIN  60  60 100 SE9       29.71F
ARBOR VITAE    LGT RAIN  62  60  94 S8G16     29.72S
WOODRUFF       LGT RAIN  62  60  94 S8G16     29.72S
RHINELANDER    LGT RAIN  60  60 100 S7        29.74F
EAGLE RIVER    RAIN      62  60  93 S6        29.74F
LAND O LAKES   DRIZZLE   61  58  89 S3        29.76F
PHILLIPS       LGT RAIN  62  62 100 SE12G18   29.68F
TOMAHAWK       NOT AVBL
MEDFORD        RAIN      61  60  97 SE8       29.70F
MERRILL        RAIN      61  61 100 SE8       29.73F
$$

WIZ029-030-035-036-043>047-282000-
CENTRAL WISCONSIN

CITY           SKY/WX    TMP DP  RH WIND       PRES   REMARKS
WAUSAU         LGT RAIN  61  61 100 SE8       29.72F
MOSINEE        LGT RAIN  63  63 100 S10G17    29.75F
MARSHFIELD     LGT RAIN  65  63  93 S8        29.71F FOG
STEVENS POINT  LGT RAIN  61  61 100 S12G21    29.75F
WAUPACA        LGT RAIN  66  64  96 SE10G16   29.76F
WAUTOMA        LGT RAIN  65  63  93 S12G17    29.76F
WISC RAPIDS    LGT RAIN  65  63  93 S8        29.74F
CAMP DOUGLAS   DRIZZLE   66  64  94 S9        29.73S
$$

WIZ011>013-019>022-031-037>040-048>050-282000-
NORTHEAST WISCONSIN

CITY           SKY/WX    TMP DP  RH WIND       PRES   REMARKS
ANTIGO         DRIZZLE   60  59  99 S8        29.78S
SHAWANO        DRIZZLE   66  63  88 S5        29.78F
OCONTO         CLOUDY    64  61  90 S7        29.80F
STURGEON BAY   LGT RAIN  61  58  90 S16       29.82F
GREEN BAY      LGT RAIN  65  64  97 S10       29.80F
MANITOWOC      NOT AVBL
APPLETON       NOT AVBL
CLINTONVILLE   RAIN      63  61  94 S10G17    29.78S
OSHKOSH        CLOUDY    65  62  90 S20G25    29.77F
$$

WIZ032>034-041-042-053>061-282000-
SOUTHWEST WISCONSIN

CITY           SKY/WX    TMP DP  RH WIND       PRES   REMARKS
LA CROSSE      CLOUDY    73  67  81 S12       29.68F
SPARTA         CLOUDY    66  64  95 S8        29.72S
VIROQUA        CLOUDY    67  67 100 S14       29.74R
BOSCOBEL       CLOUDY    74  67  78 S12G21    29.73F
PRAIRIE DU CHI CLOUDY    73  64  73 SE7       29.72F
PLATTEVILLE    CLOUDY    70  68  95 S16G22    29.78F
$$

WIZ056-057-062-063-064-067-068-282000-
SOUTH CENTRAL WISCONSIN

CITY           SKY/WX    TMP DP  RH WIND       PRES   REMARKS
REEDSBURG      CLOUDY    66  66 100 S13G18    29.74S
BARABOO/DELLS  CLOUDY    65  63  94 S15       29.75F
LONE ROCK      NOT AVBL
MINERAL POINT  CLOUDY    68  68 100 S16G22    29.78S
MADISON        LGT RAIN  67  64  90 S12       29.78F
MIDDLETON      CLOUDY    68  65  91 S14G20    29.79F
WATERTOWN      LGT RAIN  64  64 100 S9        29.83S
MONROE         MOSUNNY   68  64  88 S17G24    29.82S
JANESVILLE     PTSUNNY   70  68  94 S12       29.81F
$$

WIZ051-052-058>065-066-070>072-282000-
SOUTHEAST WISCONSIN

CITY           SKY/WX    TMP DP  RH WIND       PRES   REMARKS
MILWAUKEE      CLOUDY    68  63  84 SW14      29.86F
WAUKESHA       PTSUNNY   63  61  94 S9G17     29.86F
MILWAUKEE/TIMM LGT RAIN  64  57  77 S9G16     29.86F
RACINE         CLOUDY    69  60  73 S14G24    29.87F
KENOSHA        PTSUNNY   70  61  73 S20G28    29.85F
FOND DU LAC    LGT RAIN  65  61  87 S22       29.79F
SHEBOYGAN      LGT RAIN  63  63 100 S12       29.82F FOG
WEST BEND      LGT RAIN  61  61 100 S8G17     29.85F
JUNEAU         LGT RAIN  63  62  95 S13G21    29.83F
$$

LSZ147-162-282000-
LAKE SUPERIOR

STATION/POSITION TIME  TEMP    WIND        PRES    WAVE
                       AIR SEA DIR/SP/G            HT/PER
                 (UTC) (F)     (DEG/KT/KT) (MB)    (FT/S)
W MID LAKE BUOY  1750   45 39   80/  8/  8 1005.8F   1/ 3
DEVILS ISLAND    1800   53      40/  9/ 10 1004.6F
SAXON HARBOR     1840   65     200/  5/  8 1003.4F
$$

LMZ867-665-643>646-282000-
LAKE MICHIGAN

STATION/POSITION TIME  TEMP    WIND        PRES    WAVE
                       AIR SEA DIR/SP/G            HT/PER
                 (UTC) (F)     (DEG/KT/KT) (MB)    (FT/S)
CHAMBERS ISLAND  1840   62     140/  5/ 12 1009.5S
S GREEN BAY BUOY 1830   64     160/ 14/ 17 1009.3R
N MID LAKE BUOY  1750   59 53  170/ 19/ 23 1010.5F   4/ 5
NORTHPORT PIER   1840   61     170/ 10/ 18 1010.5R
KEWAUNEE LAKESHO 1830   57     180/ 18/ 20 1010.4R
SHEBOYGAN LAKESH 1800   60     190/ 23/ 26 1011.0R
PORT WASHINGTON  1840   58     210/  5/ 11 1011.9F
ATWATER BUOY     1709   58 53  190/ 16/ 17 1011.8F
MILWAUKEE LAKESH 1830   64     200/ 11/ 13   N/A
S MID LAKE BUOY  1750   64 61  150/ 25/ 31 1011.3F   4/ 5
KENOSHA   LAKESH 1800   65     200/ 14/ 24 1011.9
$$

TC  - TEMPERATURE IN CELSIUS
VSB - VISIBILITY IN STATUTE MILES
WCI - WIND CHILL INDEX
HX  - HEAT INDEX





USA.gov is the U.S. government's official web portal to all federal, state and local government web resources and services.